Regional Weather Roundup
Issued by NWS

Home | Current Version | Previous Version | Text Only | Print | Product List | Glossary On
Versions: 1 2 3 4 5 6 7 8 9 10 11 12 13 14 15 16 17 18 19 20 21 22 23 24 25 26 27 28 29 30 31 32 33 34 35 36 37 38 39 40 41 42 43 44 45 46 47 48 49 50
000
ASHW40 PHFO 251343
RWRHI

WEATHER ROUNDUP FOR HAWAII
NATIONAL WEATHER SERVICE HONOLULU HI
300 AM HST SAT APR 25 2015

THIS IS AN AUTOMATED REPORT THAT HAS NOT BEEN QUALITY CONTROLLED.

NOTE..."FAIR" INDICATES FEW OR NO CLOUDS BELOW 12,000 FEET WITH NO
SIGNIFICANT WEATHER AND/OR OBSTRUCTIONS TO VISIBILITY.

* - THESE SITES REPORT LIMITED FIELDS

HIZ001>004-251400-
KAUAI-NIIHAU-

CITY           SKY/WX    TMP DP  RH WIND       PRES   REMARKS
LIHUE APT      CLOUDY    75  70  83 SW9G18    29.94R
PORT ALLEN*      N/A     75 N/A N/A S13         N/A
POIPU*           N/A     75 N/A N/A S8G14       N/A
PRINCEVILLE*     N/A     73 N/A N/A MISG        N/A
KOKOLE POINT*  NOT AVBL
MOLOAA DAIRY*  NOT AVBL
WAIMEA HTS*      N/A     73  70  88 S8G14       N/A
PUU OPAE*        N/A     66  66 100 S9G20       N/A
PUU LUA*       NOT AVBL
MAKAHA RIDGE*    N/A     70  64  83 S6G18       N/A
$$

HIZ005>011-251400-
OAHU-

CITY           SKY/WX    TMP DP  RH WIND       PRES   REMARKS
HONOLULU       MOCLDY    73  69  87 S9        29.94F
KALAELOA       MOCLDY    75  70  83 S12       29.95F
KANEOHE MCB    PTCLDY    74  67  78 S3        29.92F
WHEELER FIELD  FAIR      71  68  89 S6        29.95
BELLOWS*         N/A    N/A N/A N/A W3          N/A
KAHUKU*          N/A    N/A N/A N/A E1          N/A
WHEELER*       NOT AVBL
WAIANAE HARBOR NOT AVBL
DILLINGHAM*      N/A     66  64  94 MISG        N/A
KAHUKU TRN*      N/A     70  66  88 SE1         N/A
KAWAILOA*        N/A     70  68  94 S7G14       N/A
KII*             N/A     72  66  83 CALM        N/A
MAKUA RANGE*     N/A     75  66  73 SW6G17      N/A
OAHU FOREST NW   N/A    N/A N/A N/A CALM        N/A
SCHOFIELD BRK*   N/A     70  64  83 MISG        N/A
SCHOFIELD S*   NOT AVBL
WAIANAE VLY*     N/A     72  70  94 E1G8        N/A
KUAOKALA*        N/A     72  68  88 S16G26      N/A
HONOULIUULI*   NOT AVBL
MOKUOLOE IS*   NOT AVBL
PALEHUA*         N/A     66  64  94 S5G18       N/A
WAIAWA PHB*    NOT AVBL
$$

HIZ012>013-251400-
MOLOKAI-

CITY           SKY/WX    TMP DP  RH WIND       PRES   REMARKS
MOLOKAI AIRPT  CLEAR     66  65  96 N3        29.96F
KALAUPAPA      NOT AVBL
MAKAPULAPAI*     N/A     68  63  83 SE3         N/A
MOLOKAI 1*       N/A     61  59  94 CALM        N/A
PUU ALII*        N/A     55  55  99 CALM        N/A
$$

HIZ016-251400-
KAHOOLAWE-

CITY           SKY/WX    TMP DP  RH WIND       PRES   REMARKS
KAHOOLAWE*       N/A     66 N/A N/A VRB7        N/A
HAKIOAWA*        N/A     68  64  88 MISG      30.38S
HONOKANAIA*      N/A     74  68  81 N3G10     29.96F
KANELOA*         N/A     72  64  78 MISG      29.18
KEALIALALO*      N/A     70  64  83 NE5G12    29.96S
LUA MAKIKA*    NOT AVBL
$$

HIZ014>015-251400-
LANAI-

CITY           SKY/WX    TMP DP  RH WIND       PRES   REMARKS
LANAI CITY     FAIR      65  60  84 CALM      30.01S
LANAI 1*         N/A     68  63  83 S2          N/A
$$

HIZ017>028-251400-
MAUI-

CITY           SKY/WX    TMP DP  RH WIND       PRES   REMARKS
KAHULUI        MOCLDY    68  62  81 SE6       29.95F
KAPALUA-W MAUI NOT AVBL
HANA AIRPORT   CLEAR     73  66  78 SE6       29.98S
HANA*            N/A     75 N/A N/A SE7G16      N/A
HALEAKALA SUMM   N/A     50  18  27 NW15        N/A
MAALAEA BAY*   NOT AVBL
HALEAKALA*     NOT AVBL
KAUPO GAP*       N/A     57  55  94 W3G9        N/A
KULA 1*          N/A     55  10  16 E3          N/A
$$

HIZ023>026-251400-
BIG ISLAND OF HAWAII COAST AND LOWER SLOPES-

CITY           SKY/WX    TMP DP  RH WIND       PRES   REMARKS
KAILUA KONA    CLOUDY    76  69  79 NE6       29.94F
HILO           CLOUDY    70  66  87 W8        29.98F
HONOKAA*       NOT AVBL
KAWAIHAE MWT*    N/A     77 N/A N/A E5          N/A
KAWAIHAE*        N/A     75 N/A N/A NE3         N/A
SOUTH POINT*     N/A     68 N/A N/A NE13G20     N/A
UPOLU AIRPORT*   N/A    N/A N/A N/A SE7         N/A
KAMUELA*       CLOUDY    57  57 100 CALM      30.06S
HAKALAU*         N/A     46  45  93 S12         N/A
KALOKO-HONOKO*   N/A     72  61  68 N3        29.93F
PALI 2*          N/A     61  57  88 N9          N/A
KEALAKOMO*       N/A     75  66  73 E12         N/A
KAUPULEHU*       N/A     66  61  82 SE7         N/A
KAPAPALA*        N/A     63  56  79 N5          N/A
LOWER KAHUKU*    N/A     57  55  94 N3G10       N/A
PUHE CS*         N/A     75  66  73 E3          N/A
PUHO CS*         N/A     73  62  67 E2          N/A
PTA KEAMUKU*     N/A     57  55  94 CALM        N/A
WAIKOLOA*        N/A     64  59  82 SE5         N/A
$$

HIZ027>028-251400-
BIG ISLAND OF HAWAII INTERIOR AND SUMMMITS-

CITY           SKY/WX    TMP DP  RH WIND       PRES   REMARKS
BRADSHAW FIELD PTCLDY    44  26  48 N6        30.25S
MK VISITOR CEN NOT AVBL
MAUNA KEA*       N/A     39   3  22 N10         N/A
MAUNA LOA*       N/A     43  12  28 MISG        N/A
MAUNA LOA 1*   NOT AVBL
PTA KIPUKA*      N/A     50  50 100 SE6         N/A
PTA RANGE 17*    N/A     50  45  81 CALM        N/A
PTA WEST*        N/A     72  68  88 E3G10       N/A
NENE CABIN*      N/A     43  36  75 NE5G10      N/A
AHUMOA*          N/A    N/A N/A N/A NE7         N/A
PTA PORTABLE*  NOT AVBL
PUU MALI*        N/A    N/A N/A N/A E3G10       N/A
$$

HIC003-251400-
NORTHWEST ISLANDS-

CITY           SKY/WX    TMP DP  RH WIND       PRES   REMARKS
MIDWAY ISLAND  CLOUDY    64  55  72 NE18G29   30.19S
MIDWAY NOS*    NOT AVBL
FRENCH FRIGATE NOT AVBL
$$

PHZ110>124-180-251400-
BUOY REPORTS

STATION/POSITION TIME  TEMP    WIND        PRES    WAVE   SWELL
                       AIR SEA DIR/SP/G            HT/PER HT/DIR
                 (UTC) (F)     (DEG/KT/KT) (MB)    (FT/S) (FT/D)
BUOY 51001       NOT AVBL
BUOY 51101       1300   72 75  230/ 12/ 14 1011.4F   7/ 9   7/ 80
BUOY 51100       1300   71 75  240/ 12/ 14 1011.2F
BUOY 51002       1300   78 79  110/ 16/ 17 1012.9F   8/ 9   7/ 80
BUOY 51003       1300   78 79  160/ 16/ 19 1013.1F   7/ 9   5
BUOY 51004       1201   75 77   90/ 17/ 21 1013.6    9/ 9   7/ 80
BARBERS PT BUOY  NOT AVBL
WAIMEA BAY BUOY  1300      78                N/A     3/11
KAILUA BAY BUOY  1300      77                N/A     6/ 9   2/ 90
LANAI BUOY       1300      78                N/A     4/13   3/180
BARBERS PT 2     1300      78                N/A     7/ 7   3/200
PAUWELA MAUI     1300      76                N/A     6/ 9   2/ 90
HILO             1300      77                N/A     8/ 9   2/ 90
KANEOHE BAY BUOY 1300      76                N/A     6/ 9   2/ 60
HANALEI KAUAI    1300      78                N/A     7/10   2/340
KAHULUI HARBOR   1300   70 78  130/  2/  3 1013.8
HONOLULU HARBOR  1300   77 79  180/  3/  7 1014.0
KILO NALU        NOT AVBL
HILO HARBOR      1300   70 75  230/  9/ 12 1015.0
MOKUOLOE         1300   75 78  190/  2/  4 1014.0S
NAWILIWILI       1300   76 78  240/  5/ 17 1013.0F
WHOTS BUOY       NOT AVBL
BUOY 51028       NOT AVBL
$$

......................KEY........................................
  SKY/WX - SKY CONDITIONS/PRESENT WEATHER
  TMP    - TEMPERATURE IN FAHRENHEIT
  DWPT   - DEWPOINT IN FAHRENHEIT
  RH     - RELATIVE HUMIDITY IN PERCENT
  WIND   - DIRECTION AND SPEED /MPH FOR ISLANDS...KTS FOR BUOYS/
  PRES   - MEAN SEA LEVEL PRESSURE IN INCHES OF HG
  VSB    - VISIBILITY IN MILES
  HX     - HEAT INDEX
  WCI    - WIND CHILL INDEX
  VRB    - VARIABLE WIND DIRECTION
  N/A    - NOT AVAILABLE


USA.gov is the U.S. government's official web portal to all federal, state and local government web resources and services.